www.pogodaiklimat.ru

ПОГОДА в Меркьюри, NV

  • Прогноз погоды в Меркьюри
  • Монитор погоды в Меркьюри
  • Климат в Меркьюри

АРХИВ ПОГОДЫ в Меркьюри

Время (UTC), дата Ветер
(напр.,м/с)
 
Видим.   Явления Облачность Т
(С)
Тd
(С)
f
(%)
Тe
(С)
Тes
(С)
Комфортность

P
(гПа)

Po
(гПа)
Тmin
(С)
Tmax
(С)
R
(мм)
SD
(см)
13:53 15.09 нст  16 км    ясно  +22.2  -7.2  13  +20  +21    1011.2  902.4         
14:53 15.09 СВ  16 км    ясно  +26.1  -6.7  11  +23  +25  комфорт  1011.2  902.7         
15:53 15.09 нст  16 км    ясно  +28.9  -5.6  10  +25  +31  комфорт  1011.3  902.7         
16:53 15.09 Ю  16 км    ясно  +31.7  -2.8  11  +28  +35  жарко  1010.5  902.1  +14.4  +32.2     
17:53 15.09 Ю  7
{11} 
16 км    ясно  +33.9  -0.6  11  +30  +32  жарко  1009.5  901.5         
18:53 15.09 Ю  9
{13} 
16 км    ясно  +33.9  0.0  12  +31  +31  жарко  1008.9  900.9         
19:53 15.09 Ю  6
{13} 
16 км    ясно  +33.3  0.0  12  +30  +34  жарко  1008.7  900.3         
20:53 15.09 Ю  7
{12} 
16 км    ясно  +33.9  0.0  12  +31  +33  жарко  1007.6  899.4         
21:53 15.09 ЮЗ  6
{12} 
16 км    ясно  +33.9  -0.6  11  +30  +33  жарко  1006.9  898.5         
22:53 15.09 ЮЗ  7
{10} 
16 км    ясно  +32.8  0.0  12  +29  +31  жарко  1006.7  898.5  +31.7  +35.6     
23:53 15.09 Ю  7
{10} 
16 км    ясно  +31.7  +1.1  14  +29  +29  жарко  1006.7  898.2         
00:53 16.09 Ю  16 км    ясно  +30.6  +2.8  17  +28  +28  жарко  1006.5  897.9         
01:53 16.09 З  16 км    ясно  +28.9  0.0  15  +26  +26  жарко  1006.4  898.2         
02:53 16.09 ЮЗ  16 км    ясно  +27.2  -5.0  12  +24  +24  комфорт  1006.5  898.5         
03:53 16.09 В  16 км    ясно  +25.6  -3.3  15  +23  +23  комфорт  1006.5  898.5         
04:53 16.09 Ю  16 км    ясно  +26.7  -6.1  11  +24  +24  комфорт  1006.0  898.5  +25.0  +32.8     
05:53 16.09 Ю  16 км    ясно  +27.2  -3.9  13  +24  +24  комфорт  1006.0  898.8         
06:53 16.09 Ю  8
{11} 
16 км    ясно  +26.7  -1.1  16  +24  +24  комфорт  1006.0  898.8         
07:53 16.09 Ю  16 км    ясно  +26.7  -1.1  16  +24  +24  комфорт  1005.9  898.5         
08:53 16.09 Ю  8
{13} 
16 км    ясно  +26.7  -2.2  15  +24  +24  комфорт  1005.4  898.2         
09:53 16.09 нст  3
{9} 
16 км    ясно  +25.6  -1.7  16  +24  +24  комфорт  1005.6  898.2         
10:53 16.09 Ю  10
{13} 
16 км    ясно  +25.0  -1.1  18  +23  +23  комфорт  1005.9  898.2  +25.0  +28.3     
11:53 16.09 Ю  5
{10} 
16 км    ясно  +25.0  -3.9  14  +23  +23  комфорт  1006.1  898.2         
12:53 16.09 ЮЗ  7
{13} 
16 км    ясно  +23.9  -3.3  16  +22  +22  комфорт  1007.1  899.1         
13:53 16.09 Ю  8
{13} 
16 км    ясно  +25.6  -2.2  16  +24  +24  комфорт  1007.4  899.4         
14:53 16.09 Ю  6
{13} 
16 км    ясно  +27.8  -3.9  12  +25  +25  комфорт  1007.6  899.7         
15:53 16.09 Ю  7
{14} 
16 км    ясно  +28.9  -3.9  11  +26  +27  жарко  1007.8  899.7         
16:53 16.09 ЮЗ  9
{12} 
16 км    ясно  +30.0  -5.6  +26  +27  жарко  1007.2  899.4  +23.9  +30.6     
17:53 16.09 Ю  10
{16} 
16 км    5/0 3300 м
[средняя] 
+30.6  -6.7  +27  +27  жарко  1006.7  899.1         
18:53 16.09 ЮЗ  13
{21} 
16 км    ясно  +32.2  -6.7  +28  +28  жарко  1005.7  898.2         
19:53 16.09 Ю  13
{17} 
16 км    ясно  +30.6  -6.1  +27  +27  жарко  1005.3  897.9         
20:53 16.09 Ю  10
{16} 
16 км    ясно  +30.0  -5.6  +26  +26  жарко  1004.6  897.0         
21:27 16.09 ЮЗ  14
{18} 
4 км  мгла  5/0 2850 м
[средняя] 
+29.4  -2.8  12  +26  +26  жарко    897.3         
21:36 16.09 ЮЗ  10
{19} 
16 км  слабый дождь  8/2 960 м
[средняя] 
+26.7  +1.7  20  +25  +25  комфорт    897.6         
21:53 16.09 Ю  7
{17} 
16 км  слабый дождь  10/2 930 м
[средняя] 
+26.1  +3.3  23  +25  +25  комфорт  1004.8  897.0         
22:53 16.09 Ю  12
{17} 
16 км    ясно  +28.3  -2.2  14  +26  +26  жарко  1003.7  896.1  +24.4  +32.8     
23:53 16.09 Ю  12
{20} 
16 км    ясно  +28.3  -3.9  12  +25  +25  комфорт  1003.3  895.8         
00:53 17.09 Ю  8
{16} 
16 км    ясно  +27.2  -6.1  11  +24  +24  комфорт  1003.5  895.5         
01:53 17.09 Ю  11
{16} 
16 км    ясно  +26.7  -5.0  12  +24  +24  комфорт  1003.1  895.5         
02:53 17.09 Ю  8
{14} 
16 км    ясно  +25.6  -2.2  16  +24  +24  комфорт  1003.5  895.8         
03:53 17.09 ЮЗ  13
{20} 
16 км    ясно  +25.0  -1.1  18  +23  +23  комфорт  1003.7  896.1         
04:53 17.09 ЮЗ  13
{18} 
16 км    ясно  +23.9  +0.6  22  +23  +23  комфорт  1003.5  895.8  +23.9  +28.3     
05:53 17.09 ЮЗ  6
{13} 
16 км    ясно  +22.8  0.0  22  +22  +22  комфорт  1004.8  897.0         
06:53 17.09 Ю  11
{19} 
16 км    ясно  +22.8  -0.6  21  +22  +22  комфорт  1005.4  897.6         
07:53 17.09 Ю  8
{13} 
16 км    ясно  +21.7  -0.6  23  +21  +21  комфорт  1006.8  898.5         
08:53 17.09 ЮЗ  8
{13} 
16 км    ясно  +20.0  +0.6  27  +19  +19    1008.0  899.4         
09:53 17.09 ЮЗ  16 км    ясно  +17.8  -0.6  29  +17  +17    1009.2  900.0         
10:53 17.09   16 км    ясно  +16.1  -3.9  25  +16  +16    1010.2  900.9  +15.6  +23.9     

 

Местоположение метеостанции Desert Rock Airport: широта 36.6207 долгота -116.0287 высота над уровнем моря 987 м.

В архиве по умолчанию представлена погода в Меркьюри за последние 1-2 суток. Обновление информации о фактической погоде в базе происходит ежечасно! Архивные данные за месяц целиком и за предыдущие месяцы Вы можете получить, выбрав интересующий диапазон дат из раскрывающегося списка и нажав кнопку "Ввод!".

Внимание! Архив погоды МЕТАР в базе сайта хранится не более 60 дней. Нет смысла пытаться выбрать более раннюю дату.

Внимание! Время в таблицах - всемирное. Для получения местного времени необходимо прибавить поправку, которая в Меркьюри равна -8 ч.

Ветер - указаны скорость ветра в м/с и направление, откуда дует ветер: С - северный, СВ - северо-восточный, В - восточный, ЮВ - юго-восточный, Ю - южный, ЮЗ - юго-западный, З - западный, СЗ - северо-западный.
Видимость - горизонтальная дальность видимости в метрах или километрах. При видимости от 1 до 10 км при отсутствии осадков обычно наблюдается дымка, при ухудшении видимости до 1 км и менее - туман. В сухую погоду видимость может ухудшаться дымом, пылью или мглою.
Атмосферные явления - указаны явления, наблюдавшиеся в указанный момент времени.
Облачность - указаны через наклонную черту верхняя и нижняя облачность в баллах и высота нижней границы облаков в метрах. Внимание: облачность, как и прочие метеорологические величины в США измеряются автоматическими метеостанциями. Указанные значения в баллах носят условный характер и показывают процент времени, в течение которого, в среднем, лазерный луч высотомера отражался от облаков обратно.
T - Температура воздуха - температура, измеренная на высоте 2 м над землей.
Td - Температура точки росы - температура, при понижении до которой содержащийся в воздухе водяной пар достигнет насыщения.
f - Относительная влажность воздуха - влажноcть воздуха, измеренная на высоте 2 м над землей.
Te - Эффективная температура - температура, которую ощущает одетый по сезону человек в тени. Характеристика душности погоды. При расчете учитывается влияние влажности воздуха и скорости ветра на теплоощущения человека.
Tes - Эффективная температура на солнце - температура, которую ощущает человек, с поправкой на солнечный нагрев. Характеристика знойности погоды. Зависит от высоты солнца над горизонтом, облачности и скорости ветра. Ночью, в пасмурную погоду, а также при ветре 12 м/с и более поправка равна нулю.
P - Атмосферное давление - приведенное к уровню моря атмосферное давление.
Po - Атмосферное давление - измеренное на уровне метеостанции атмосферное давление.
Tmin - Минимальная температура - минимум температуры воздуха на высоте 2 м над землей.
Tmax - Максимальная температура - максимум температуры воздуха на высоте 2 м над землей.
R - Количество осадков - Количество выпавших осадков за 3 или 6 часов, мм.
SD - Снежный покров - Высота снежного покрова, см.